Flag for Spain Weather past 2 weeks in Santa Cruz de Tenerife, Canary Islands, Spain

Now
54 °F

Partly sunny.


Feels Like: 49 °F
Forecast: 62 / 67 °F
Wind: 16 mph from Northwest

Location: Tenerife / Los Rodeos

Current Time: Mar 1, 2015 at 5:37:57 PM

Latest Report: Mar 1, 2015 at 5:00 PM


Visibility: N/A

Pressure: 30.30 "Hg

Humidity: 88%

Dew point: 50 °F

Location of Santa Cruz de TenerifeLocation

Historic Weather in Santa Cruz de Tenerife — Graph

°F

Santa Cruz de Tenerife temperature yesterday

Maximum temperature yesterday: 59 °F (at 2:00 PM)
Minimum temperature yesterday: 52 °F (at 6:00 AM)
Average temperature yesterday: 55 °F

Past Weeks' High & Low Weather Summary

 TemperatureHumidityPressure
High63 °F (Feb 25, 2:30 PM)100% (Feb 15, 8:00 AM)30.42 "Hg (Feb 15, 8:00 AM)
Low48 °F (Feb 14, 10:30 PM)55% (Feb 25, 6:00 PM)30.18 "Hg (Feb 18, 2:00 PM)
Average54 °F88%30.30 "Hg
* Reported Feb 14 4:00 PM — Mar 1 4:30 PM, Santa Cruz de Tenerife, Weather by CustomWeather, © 2015

Note: Actual official high and low records may vary slightly from our data, if they occured in-between our weather recording intervals... More about our weather records

Advertising

Santa Cruz de Tenerife weather history for previous 24 hours

 ConditionsComfort  
Time TempWeatherWind HumidityBarometerVisibility
4:30 PM
Sun, Mar 1
55 °FPartly sunny.14 mph88%30.30 "HgN/A
4:00 PM57 °FPartly sunny.15 mph82%30.30 "HgN/A
3:30 PM57 °FPartly sunny.14 mph77%30.30 "HgN/A
3:00 PM55 °FPartly sunny.13 mph82%30.30 "HgN/A
2:30 PM57 °FPartly sunny.12 mph82%30.33 "HgN/A
2:00 PM57 °FPartly sunny.14 mph82%30.33 "HgN/A
1:30 PM55 °FBroken clouds.15 mph88%30.36 "HgN/A
1:00 PM55 °FBroken clouds.16 mph88%30.36 "HgN/A
12:30 PM55 °FBroken clouds.15 mph88%30.39 "HgN/A
12:00 PM55 °FBroken clouds.15 mph88%30.39 "HgN/A
11:30 AM55 °FBroken clouds.16 mph94%30.39 "HgN/A
11:00 AM55 °FBroken clouds.15 mph88%30.42 "HgN/A
10:30 AM54 °FBroken clouds.16 mph88%30.42 "HgN/A
10:00 AM52 °FFog.14 mph100%30.42 "Hg6 mi
9:30 AM54 °FFog.14 mph88%30.42 "Hg6 mi
9:00 AM52 °FBroken clouds.17 mph100%30.39 "Hg5 mi
8:30 AM52 °FBroken clouds.17 mph94%30.39 "Hg5 mi
8:00 AM52 °FCool.21 mph94%30.36 "Hg5 mi
7:30 AM50 °FScattered clouds.14 mph94%30.36 "Hg5 mi
7:00 AM50 °FPassing clouds.14 mph100%30.36 "Hg5 mi
6:30 AM50 °FPassing clouds.12 mph94%30.36 "Hg6 mi
6:00 AM50 °FPassing clouds.12 mph94%30.36 "Hg6 mi
11:00 PM
Sat, Feb 28
54 °FCool.12 mph100%30.42 "Hg3 mi
10:30 PM54 °FPassing clouds.13 mph100%30.42 "Hg4 mi
10:00 PM54 °FPassing clouds.14 mph100%30.42 "Hg4 mi
9:30 PM54 °FCool.16 mph100%30.42 "Hg2 mi
9:00 PM54 °FDrizzle. Fog.18 mph100%30.39 "Hg4 mi
8:30 PM54 °FDrizzle. Fog.17 mph94%30.39 "Hg6 mi
8:00 PM54 °FDrizzle. Fog.21 mph94%30.39 "Hg6 mi
7:30 PM54 °FPassing clouds.18 mph94%30.39 "Hg6 mi
7:00 PM54 °FPartly sunny.20 mph94%30.36 "HgN/A
6:30 PM54 °FScattered clouds.21 mph94%30.36 "HgN/A
6:00 PM54 °FScattered clouds.20 mph94%30.36 "HgN/A
5:30 PM54 °FScattered clouds.17 mph94%30.36 "HgN/A
5:00 PM55 °FScattered clouds.17 mph88%30.36 "HgN/A
Weather by CustomWeather, © 2015

See weather overviewHow to use our weather pages